When you browse on this site, cookies collect data to enhance your experience and personalize the content and advertising you see.
Visit our Privacy Policy to learn more. By continuing to use the site, you agree to this use of cookies and data.
  • In Austria
  • List of Countries
  • For 7 days
  • Water Temperature
  • Weather Map
  • News
  • Weather Widgets
  • user-avatar
    Login

    Hourly Weather Lyubachin

    Today, 23 October, Wednesday

    Time Temperature Precipitation Wind Pressure Humidity
    00:00 +14°C° 0 mm 2 mps 754 mmHg 89%
    01:00 +13°C° 0 mm 2 mps 754 mmHg 90%
    02:00 +13°C° 0 mm 2 mps 754 mmHg 92%
    03:00 +13°C° 0 mm 2 mps 754 mmHg 92%
    04:00 +13°C° 0 mm 1 mps 754 mmHg 93%
    05:00 +12°C° 0 mm 1 mps 753 mmHg 93%
    06:00 +13°C° 0 mm 1 mps 753 mmHg 92%
    07:00 +13°C° 0 mm 1 mps 753 mmHg 91%
    08:00 +13°C° 0 mm 1 mps 754 mmHg 91%
    09:00 +15°C° 0 mm 1 mps 754 mmHg 85%
    10:00 +16°C° 0 mm 2 mps 754 mmHg 79%
    11:00 +17°C° 0 mm 2 mps 754 mmHg 73%
    12:00 +18°C° 0 mm 2 mps 754 mmHg 71%
    13:00 +19°C° 0 mm 2 mps 754 mmHg 68%
    14:00 +19°C° 0 mm 2 mps 753 mmHg 65%
    15:00 +18°C° 0 mm 2 mps 753 mmHg 70%
    16:00 +17°C° 0 mm 2 mps 753 mmHg 75%
    17:00 +16°C° 0 mm 2 mps 753 mmHg 80%
    18:00 +15°C° 0 mm 2 mps 753 mmHg 81%
    19:00 +14°C° 0 mm 2 mps 754 mmHg 82%
    20:00 +13°C° 0 mm 2 mps 754 mmHg 83%
    21:00 +12°C° 0 mm 1 mps 754 mmHg 83%
    22:00 +12°C° 0 mm 1 mps 754 mmHg 83%
    23:00 +11°C° 0 mm 1 mps 754 mmHg 83%

    Tomorrow, 24 October, Thursday

    Time Temperature Precipitation Wind Pressure Humidity
    00:00 +11°C° 0 mm 1 mps 754 mmHg 84%
    01:00 +11°C° 0 mm 1 mps 754 mmHg 84%
    02:00 +10°C° 0 mm 1 mps 754 mmHg 85%
    03:00 +10°C° 0 mm 1 mps 754 mmHg 86%
    04:00 +10°C° 0 mm 1 mps 753 mmHg 88%
    05:00 +9°C° 0 mm 2 mps 753 mmHg 89%
    06:00 +9°C° 0 mm 2 mps 753 mmHg 89%
    07:00 +9°C° 0 mm 2 mps 753 mmHg 89%
    08:00 +9°C° 0 mm 2 mps 753 mmHg 88%
    09:00 +12°C° 0 mm 2 mps 753 mmHg 83%
    10:00 +14°C° 0 mm 2 mps 753 mmHg 77%
    11:00 +16°C° 0 mm 2 mps 753 mmHg 72%
    12:00 +17°C° 0 mm 2 mps 753 mmHg 70%
    13:00 +18°C° 0 mm 3 mps 752 mmHg 68%
    14:00 +19°C° 0 mm 3 mps 752 mmHg 66%
    15:00 +17°C° 0 mm 3 mps 752 mmHg 72%
    16:00 +16°C° 0 mm 2 mps 751 mmHg 78%
    17:00 +15°C° 0 mm 2 mps 751 mmHg 84%
    18:00 +13°C° 0 mm 3 mps 751 mmHg 86%
    19:00 +13°C° 0 mm 3 mps 751 mmHg 88%
    20:00 +12°C° 0 mm 3 mps 752 mmHg 90%
    21:00 +12°C° 0 mm 3 mps 752 mmHg 91%
    22:00 +12°C° 0 mm 3 mps 751 mmHg 92%
    23:00 +11°C° 0 mm 3 mps 751 mmHg 93%

    Day after tomorrow, 25 October, Friday

    Time Temperature Precipitation Wind Pressure Humidity
    00:00 +11°C° 0 mm 3 mps 751 mmHg 93%
    01:00 +11°C° 0 mm 3 mps 751 mmHg 94%
    02:00 +11°C° 0 mm 3 mps 751 mmHg 94%
    03:00 +11°C° 0 mm 3 mps 751 mmHg 94%
    04:00 +11°C° 0 mm 3 mps 751 mmHg 93%
    05:00 +10°C° 0 mm 3 mps 750 mmHg 93%
    06:00 +10°C° 0 mm 3 mps 750 mmHg 91%
    07:00 +10°C° 0 mm 3 mps 750 mmHg 88%
    08:00 +11°C° 0 mm 3 mps 751 mmHg 86%
    09:00 +12°C° 0 mm 3 mps 751 mmHg 78%
    10:00 +14°C° 0 mm 3 mps 751 mmHg 70%
    11:00 +17°C° 0 mm 3 mps 751 mmHg 63%
    12:00 +18°C° 0 mm 3 mps 751 mmHg 60%
    13:00 +19°C° 0 mm 3 mps 751 mmHg 58%
    14:00 +19°C° 0 mm 3 mps 751 mmHg 56%
    15:00 +18°C° 0 mm 3 mps 751 mmHg 62%
    16:00 +17°C° 0 mm 2 mps 750 mmHg 68%
    17:00 +16°C° 0 mm 2 mps 750 mmHg 73%
    18:00 +15°C° 0 mm 2 mps 751 mmHg 77%
    19:00 +14°C° 0 mm 2 mps 751 mmHg 80%
    20:00 +13°C° 0 mm 2 mps 752 mmHg 84%
    21:00 +13°C° 0 mm 2 mps 752 mmHg 87%
    22:00 +13°C° 0 mm 2 mps 752 mmHg 90%
    23:00 +12°C° 0 mm 2 mps 753 mmHg 93%

    26 October, Saturday

    Time Temperature Precipitation Wind Pressure Humidity
    00:00 +12°C° 0 mm 2 mps 753 mmHg 94%
    01:00 +12°C° 0 mm 2 mps 753 mmHg 94%
    02:00 +11°C° 0 mm 1 mps 753 mmHg 94%
    03:00 +11°C° 0 mm 1 mps 754 mmHg 94%
    04:00 +11°C° 0 mm 1 mps 754 mmHg 94%
    05:00 +10°C° 0 mm 1 mps 754 mmHg 94%
    06:00 +11°C° 0 mm 1 mps 754 mmHg 93%
    07:00 +10°C° 0 mm 0 mps 754 mmHg 93%
    08:00 +10°C° 0 mm 0 mps 754 mmHg 92%
    09:00 +13°C° 0 mm 1 mps 754 mmHg 85%
    10:00 +14°C° 0 mm 1 mps 754 mmHg 78%
    11:00 +16°C° 0 mm 2 mps 754 mmHg 71%
    12:00 +16°C° 0 mm 2 mps 753 mmHg 70%
    13:00 +17°C° 0 mm 3 mps 753 mmHg 68%
    14:00 +18°C° 0 mm 3 mps 752 mmHg 67%
    15:00 +17°C° 0 mm 3 mps 752 mmHg 72%
    16:00 +16°C° 0 mm 3 mps 751 mmHg 78%
    17:00 +15°C° 0 mm 2 mps 751 mmHg 84%
    18:00 +13°C° 0 mm 3 mps 751 mmHg 86%
    19:00 +13°C° 0 mm 3 mps 750 mmHg 87%
    20:00 +12°C° 0 mm 3 mps 750 mmHg 89%
    21:00 +12°C° 0 mm 3 mps 750 mmHg 88%
    22:00 +12°C° 0 mm 3 mps 750 mmHg 88%
    23:00 +12°C° 0 mm 4 mps 749 mmHg 88%

    27 October, Sunday

    Time Temperature Precipitation Wind Pressure Humidity
    00:00 +12°C° 0 mm 4 mps 749 mmHg 88%
    01:00 +11°C° 0 mm 4 mps 749 mmHg 89%
    02:00 +11°C° 0 mm 3 mps 749 mmHg 89%
    03:00 +11°C° 0 mm 3 mps 749 mmHg 88%
    04:00 +11°C° 0 mm 3 mps 749 mmHg 87%
    05:00 +11°C° 0 mm 3 mps 749 mmHg 86%
    06:00 +11°C° 0 mm 4 mps 749 mmHg 85%
    07:00 +11°C° 0 mm 4 mps 748 mmHg 85%
    08:00 +11°C° 0 mm 4 mps 748 mmHg 85%
    09:00 +12°C° 0 mm 4 mps 748 mmHg 79%
    10:00 +14°C° 0 mm 4 mps 749 mmHg 74%
    11:00 +15°C° 0 mm 4 mps 749 mmHg 69%
    12:00 +17°C° 0 mm 4 mps 748 mmHg 65%
    13:00 +17°C° 0 mm 5 mps 748 mmHg 62%
    14:00 +19°C° 0 mm 5 mps 748 mmHg 59%
    15:00 +17°C° 0 mm 4 mps 747 mmHg 64%
    16:00 +16°C° 0 mm 3 mps 747 mmHg 69%
    17:00 +14°C° 0 mm 3 mps 747 mmHg 74%
    18:00 +13°C° 0 mm 3 mps 747 mmHg 76%
    19:00 +12°C° 0 mm 3 mps 747 mmHg 78%
    20:00 +11°C° 0 mm 3 mps 747 mmHg 80%
    21:00 +11°C° 0 mm 3 mps 747 mmHg 81%
    22:00 +11°C° 0 mm 3 mps 747 mmHg 82%
    23:00 +10°C° 0 mm 3 mps 747 mmHg 83%

    28 October, Monday

    Time Temperature Precipitation Wind Pressure Humidity
    00:00 +10°C° 0 mm 3 mps 746 mmHg 84%
    01:00 +10°C° 0 mm 3 mps 746 mmHg 85%
    02:00 +10°C° 0 mm 3 mps 746 mmHg 85%
    03:00 +10°C° 0 mm 4 mps 745 mmHg 84%
    04:00 +10°C° 0 mm 4 mps 745 mmHg 82%
    05:00 +10°C° 0 mm 5 mps 745 mmHg 80%
    06:00 +10°C° 0 mm 5 mps 745 mmHg 80%
    07:00 +10°C° 0 mm 5 mps 745 mmHg 79%
    08:00 +10°C° 0 mm 5 mps 745 mmHg 78%
    09:00 +10°C° 0 mm 5 mps 746 mmHg 78%
    10:00 +10°C° 0 mm 5 mps 746 mmHg 77%
    11:00 +10°C° 0 mm 5 mps 746 mmHg 77%
    12:00 +10°C° 0.1 mm 5 mps 746 mmHg 71%
    13:00 +11°C° 0.1 mm 4 mps 747 mmHg 65%
    14:00 +11°C° 0.1 mm 4 mps 747 mmHg 59%
    15:00 +10°C° 0 mm 4 mps 747 mmHg 62%
    16:00 +9°C° 0 mm 3 mps 747 mmHg 66%
    17:00 +8°C° 0 mm 2 mps 747 mmHg 69%
    18:00 +7°C° 0 mm 3 mps 747 mmHg 70%
    19:00 +7°C° 0 mm 3 mps 747 mmHg 70%
    20:00 +5°C° 0 mm 3 mps 748 mmHg 71%
    21:00 +5°C° 0 mm 3 mps 748 mmHg 73%
    22:00 +4°C° 0 mm 3 mps 748 mmHg 76%
    23:00 +4°C° 0 mm 3 mps 748 mmHg 78%

    29 October, Tuesday

    Time Temperature Precipitation Wind Pressure Humidity
    00:00 +4°C° 0 mm 4 mps 748 mmHg 78%
    01:00 +3°C° 0 mm 4 mps 748 mmHg 78%
    02:00 +3°C° 0 mm 4 mps 747 mmHg 78%
    03:00 +3°C° 0 mm 4 mps 747 mmHg 77%
    04:00 +3°C° 0 mm 4 mps 747 mmHg 77%
    05:00 +3°C° 0 mm 4 mps 747 mmHg 77%
    06:00 +3°C° 0 mm 4 mps 748 mmHg 78%
    07:00 +4°C° 0 mm 4 mps 748 mmHg 78%
    08:00 +4°C° 0 mm 4 mps 748 mmHg 79%
    09:00 +3°C° 0 mm 5 mps 749 mmHg 71%
    10:00 +5°C° 0 mm 5 mps 749 mmHg 64%
    11:00 +4°C° 0 mm 6 mps 750 mmHg 56%
    12:00 +4°C° 0 mm 6 mps 750 mmHg 55%
    13:00 +5°C° 0 mm 5 mps 750 mmHg 54%
    14:00 +3°C° 0 mm 5 mps 751 mmHg 53%
    15:00 +3°C° 0 mm 5 mps 751 mmHg 55%
    16:00 +2°C° 0 mm 5 mps 751 mmHg 56%
    17:00 +1°C° 0 mm 4 mps 752 mmHg 58%
    18:00 0°C° 0 mm 4 mps 752 mmHg 63%
    19:00 -1°C° 0 mm 4 mps 753 mmHg 69%
    20:00 -2°C° 0 mm 4 mps 753 mmHg 75%
    21:00 -2°C° 0 mm 4 mps 754 mmHg 75%
    22:00 -2°C° 0 mm 4 mps 754 mmHg 75%
    23:00 -2°C° 0 mm 4 mps 754 mmHg 75%
    Show more